Time,TemperatureF,DewpointF,PressureIn,WindDirection,WindDirectionDegrees,WindSpeedMPH,WindSpeedGustMPH,Humidity,HourlyPrecipIn,Conditions,Clouds,dailyrainin,SoftwareType,DateUTC
2013-04-14 00:04:00,42.3,32.5,30.03,SSW,209,0.0,0.0,68,0.00,,,0.00,VWS V12.08,2013-04-14 04:04:00,
2013-04-14 00:05:00,42.3,32.5,30.03,SSW,209,0.0,0.0,68,0.00,,,0.00,VWS V12.08,2013-04-14 04:05:00,
2013-04-14 00:10:00,42.4,32.6,30.03,SW,222,0.0,0.0,68,0.00,,,0.00,VWS V12.08,2013-04-14 04:10:00,
2013-04-14 00:16:00,42.6,32.8,30.03,West,270,0.0,0.0,68,0.00,,,0.00,VWS V12.08,2013-04-14 04:16:00,
2013-04-14 00:21:00,42.8,33.0,30.03,West,264,0.0,0.0,68,0.00,,,0.00,VWS V12.08,2013-04-14 04:21:00,
2013-04-14 00:31:00,43.0,33.2,30.03,East,93,0.0,0.0,68,0.00,,,0.00,VWS V12.08,2013-04-14 04:31:00,
2013-04-14 00:41:00,43.0,33.2,30.03,SW,224,0.0,0.0,68,0.00,,,0.00,VWS V12.08,2013-04-14 04:41:00,
2013-04-14 00:46:00,43.2,33.3,30.03,SW,224,0.0,0.0,68,0.00,,,0.00,VWS V12.08,2013-04-14 04:46:00,
2013-04-14 00:56:00,43.2,33.3,30.03,SW,224,0.0,0.0,68,0.00,,,0.00,VWS V12.08,2013-04-14 04:56:00,
2013-04-14 01:04:00,43.0,33.2,30.03,SW,224,0.0,0.0,68,0.00,,,0.00,VWS V12.08,2013-04-14 05:04:00,
2013-04-14 01:11:00,43.0,33.2,30.03,SW,222,0.0,0.0,68,0.00,,,0.00,VWS V12.08,2013-04-14 05:11:00,
2013-04-14 01:16:00,43.0,33.2,30.03,SW,222,0.0,0.0,68,0.00,,,0.00,VWS V12.08,2013-04-14 05:16:00,
2013-04-14 01:21:00,42.8,33.0,30.03,SW,222,0.0,0.0,68,0.00,,,0.00,VWS V12.08,2013-04-14 05:21:00,
2013-04-14 01:31:00,42.8,33.0,30.03,SW,222,0.0,0.0,68,0.00,,,0.00,VWS V12.08,2013-04-14 05:31:00,
2013-04-14 01:41:00,42.6,32.8,30.03,SW,222,0.0,0.0,68,0.00,,,0.00,VWS V12.08,2013-04-14 05:41:00,
2013-04-14 01:46:00,42.4,32.6,30.03,SW,222,0.0,0.0,68,0.00,,,0.00,VWS V12.08,2013-04-14 05:46:00,
2013-04-14 01:56:00,42.3,32.5,30.03,SW,222,0.0,0.0,68,0.00,,,0.00,VWS V12.08,2013-04-14 05:56:00,
2013-04-14 02:04:00,42.1,32.3,30.03,SW,222,0.0,0.0,68,0.00,,,0.00,VWS V12.08,2013-04-14 06:04:00,
2013-04-14 02:11:00,41.5,31.8,30.03,SW,222,0.0,0.0,68,0.00,,,0.00,VWS V12.08,2013-04-14 06:11:00,
2013-04-14 02:16:00,41.2,31.4,30.03,SW,222,0.0,0.0,68,0.00,,,0.00,VWS V12.08,2013-04-14 06:16:00,
2013-04-14 02:21:00,41.0,31.3,30.03,SW,222,0.0,0.0,68,0.00,,,0.00,VWS V12.08,2013-04-14 06:21:00,
2013-04-14 02:31:00,40.8,31.5,30.03,SW,222,0.0,0.0,69,0.00,,,0.00,VWS V12.08,2013-04-14 06:31:00,
2013-04-14 02:41:00,40.8,31.5,30.03,SW,222,0.0,0.0,69,0.00,,,0.00,VWS V12.08,2013-04-14 06:41:00,
2013-04-14 02:46:00,40.6,31.3,30.03,SW,222,0.0,0.0,69,0.00,,,0.00,VWS V12.08,2013-04-14 06:46:00,
2013-04-14 03:04:00,40.8,31.5,30.03,SW,222,0.0,0.0,69,0.00,,,0.00,VWS V12.08,2013-04-14 07:04:00,
2013-04-14 03:11:00,40.8,31.5,30.03,SW,222,0.0,0.0,69,0.00,,,0.00,VWS V12.08,2013-04-14 07:11:00,
2013-04-14 03:16:00,40.8,31.5,30.03,SW,222,0.0,0.0,69,0.00,,,0.00,VWS V12.08,2013-04-14 07:16:00,
2013-04-14 03:21:00,40.8,31.5,30.03,SW,222,0.0,0.0,69,0.00,,,0.00,VWS V12.08,2013-04-14 07:21:00,
2013-04-14 03:32:00,41.0,31.6,30.03,SW,222,0.0,0.0,69,0.00,,,0.00,VWS V12.08,2013-04-14 07:32:00,
2013-04-14 03:41:00,41.0,31.6,30.03,SW,222,0.0,0.0,69,0.00,,,0.00,VWS V12.08,2013-04-14 07:41:00,
2013-04-14 03:46:00,41.0,31.6,30.03,SW,222,0.0,0.0,69,0.00,,,0.00,VWS V12.08,2013-04-14 07:46:00,
2013-04-14 03:56:00,41.0,31.6,30.03,SW,222,0.0,0.0,69,0.00,,,0.00,VWS V12.08,2013-04-14 07:56:00,
2013-04-14 04:04:00,41.0,31.6,30.03,SW,222,0.0,0.0,69,0.00,,,0.00,VWS V12.08,2013-04-14 08:04:00,
2013-04-14 04:11:00,41.0,31.6,30.03,SW,222,0.0,0.0,69,0.00,,,0.00,VWS V12.08,2013-04-14 08:11:00,
2013-04-14 04:17:00,41.0,31.6,30.03,SW,222,0.0,0.0,69,0.00,,,0.00,VWS V12.08,2013-04-14 08:17:00,
2013-04-14 04:26:00,41.0,31.6,30.03,SW,235,0.0,0.0,69,0.00,,,0.00,VWS V12.08,2013-04-14 08:26:00,
2013-04-14 04:32:00,41.0,32.0,30.03,SW,235,0.0,0.0,70,0.00,,,0.00,VWS V12.08,2013-04-14 08:32:00,
2013-04-14 04:41:00,41.2,32.2,30.03,WSW,239,0.0,0.0,70,0.00,,,0.00,VWS V12.08,2013-04-14 08:41:00,
2013-04-14 04:47:00,41.4,32.3,30.03,WSW,239,0.0,0.0,70,0.00,,,0.00,VWS V12.08,2013-04-14 08:47:00,
2013-04-14 04:56:00,41.4,32.3,30.03,WNW,302,0.0,0.0,70,0.00,,,0.00,VWS V12.08,2013-04-14 08:56:00,
2013-04-14 05:04:00,41.4,32.3,30.03,WNW,302,0.0,0.0,70,0.00,,,0.00,VWS V12.08,2013-04-14 09:04:00,
2013-04-14 05:11:00,41.4,32.3,30.03,WNW,302,0.0,0.0,70,0.00,,,0.00,VWS V12.08,2013-04-14 09:11:00,
2013-04-14 05:17:00,41.5,32.5,30.03,WNW,302,0.0,0.0,70,0.00,,,0.00,VWS V12.08,2013-04-14 09:17:00,
2013-04-14 05:22:00,41.5,32.5,30.03,WNW,302,0.0,0.0,70,0.00,,,0.00,VWS V12.08,2013-04-14 09:22:00,
2013-04-14 05:32:00,41.7,32.7,30.03,WNW,300,0.0,0.0,70,0.00,,,0.00,VWS V12.08,2013-04-14 09:32:00,
2013-04-14 05:41:00,41.9,33.2,30.03,WNW,295,0.0,0.0,71,0.00,,,0.00,VWS V12.08,2013-04-14 09:41:00,
2013-04-14 05:50:00,42.3,33.5,30.03,WNW,296,0.0,0.0,71,0.00,,,0.00,VWS V12.08,2013-04-14 09:50:00,
2013-04-14 06:03:00,42.4,33.7,30.03,WNW,296,0.0,0.0,71,0.00,,,0.00,VWS V12.08,2013-04-14 10:03:00,
2013-04-14 06:10:00,42.4,33.7,30.03,WNW,296,0.0,0.0,71,0.00,,,0.00,VWS V12.08,2013-04-14 10:10:00,
2013-04-14 06:16:00,42.4,33.7,30.03,WNW,296,0.0,0.0,71,0.00,,,0.00,VWS V12.08,2013-04-14 10:16:00,
2013-04-14 06:25:00,42.6,33.9,30.03,WNW,296,0.0,0.0,71,0.00,,,0.00,VWS V12.08,2013-04-14 10:25:00,
2013-04-14 06:31:00,42.6,33.9,30.03,WNW,296,0.0,0.0,71,0.00,,,0.00,VWS V12.08,2013-04-14 10:31:00,
2013-04-14 06:40:00,42.8,34.1,30.06,WNW,296,0.0,0.0,71,0.00,,,0.00,VWS V12.08,2013-04-14 10:40:00,
2013-04-14 06:46:00,42.8,34.1,30.06,WNW,296,0.0,0.0,71,0.00,,,0.00,VWS V12.08,2013-04-14 10:46:00,
2013-04-14 06:55:00,43.0,34.2,30.06,WNW,296,0.0,0.0,71,0.00,,,0.00,VWS V12.08,2013-04-14 10:55:00,
2013-04-14 07:04:00,43.0,34.2,30.06,WNW,296,0.0,0.0,71,0.00,,,0.00,VWS V12.08,2013-04-14 11:04:00,
2013-04-14 07:10:00,43.2,34.4,30.06,WNW,296,0.0,0.0,71,0.00,,,0.00,VWS V12.08,2013-04-14 11:10:00,
2013-04-14 07:16:00,43.3,34.9,30.06,WNW,296,0.0,0.0,72,0.00,,,0.00,VWS V12.08,2013-04-14 11:16:00,
2013-04-14 07:21:00,43.3,34.9,30.06,WNW,296,0.0,0.0,72,0.00,,,0.00,VWS V12.08,2013-04-14 11:21:00,
2013-04-14 07:31:00,43.5,35.1,30.06,WNW,296,0.0,0.0,72,0.00,,,0.00,VWS V12.08,2013-04-14 11:31:00,
2013-04-14 07:41:00,43.7,35.3,30.06,NW,324,0.0,0.0,72,0.00,,,0.00,VWS V12.08,2013-04-14 11:41:00,
2013-04-14 07:46:00,43.9,35.5,30.06,WSW,248,0.0,0.0,72,0.00,,,0.00,VWS V12.08,2013-04-14 11:46:00,
2013-04-14 07:55:00,44.2,35.8,30.06,WSW,241,0.0,0.0,72,0.00,,,0.00,VWS V12.08,2013-04-14 11:55:00,
2013-04-14 08:04:00,44.4,36.3,30.06,WNW,289,0.0,0.0,73,0.00,,,0.00,VWS V12.08,2013-04-14 12:04:00,
2013-04-14 08:11:00,45.0,36.8,30.06,WNW,294,0.0,0.0,73,0.00,,,0.00,VWS V12.08,2013-04-14 12:11:00,
2013-04-14 08:16:00,45.3,37.2,30.06,WNW,285,0.0,0.0,73,0.00,,,0.00,VWS V12.08,2013-04-14 12:16:00,
2013-04-14 08:21:00,45.7,37.5,30.06,WNW,285,0.0,0.0,73,0.00,,,0.00,VWS V12.08,2013-04-14 12:21:00,
2013-04-14 08:31:00,46.4,38.2,30.06,West,269,0.0,0.0,73,0.00,,,0.00,VWS V12.08,2013-04-14 12:31:00,
2013-04-14 08:41:00,46.9,39.1,30.06,SSW,194,0.0,0.0,74,0.00,,,0.00,VWS V12.08,2013-04-14 12:41:00,
2013-04-14 08:46:00,47.3,39.5,30.06,NNW,332,0.0,0.0,74,0.00,,,0.00,VWS V12.08,2013-04-14 12:46:00,
2013-04-14 08:56:00,48.0,40.1,30.06,SSW,212,0.0,0.0,74,0.00,,,0.00,VWS V12.08,2013-04-14 12:56:00,
2013-04-14 09:04:00,48.4,40.5,30.06,SW,223,0.0,0.0,74,0.00,,,0.00,VWS V12.08,2013-04-14 13:04:00,
2013-04-14 09:16:00,49.5,41.2,30.06,West,261,0.0,0.0,73,0.00,,,0.00,VWS V12.08,2013-04-14 13:16:00,
2013-04-14 09:21:00,49.6,41.0,30.06,NNW,346,0.0,0.0,72,0.00,,,0.00,VWS V12.08,2013-04-14 13:21:00,
2013-04-14 09:31:00,49.8,40.8,30.06,WNW,300,0.0,0.0,71,0.00,,,0.00,VWS V12.08,2013-04-14 13:31:00,
2013-04-14 09:41:00,49.8,40.1,30.06,SW,232,0.0,4.0,69,0.00,,,0.00,VWS V12.08,2013-04-14 13:41:00,
2013-04-14 09:46:00,50.2,39.7,30.06,NNW,330,0.0,4.0,67,0.00,,,0.00,VWS V12.08,2013-04-14 13:46:00,
2013-04-14 09:56:00,50.2,36.8,30.09,WSW,256,0.0,5.8,60,0.00,,,0.00,VWS V12.08,2013-04-14 13:56:00,
2013-04-14 10:04:00,50.4,37.4,30.09,WSW,249,0.0,5.8,61,0.00,,,0.00,VWS V12.08,2013-04-14 14:04:00,
2013-04-14 10:11:00,51.3,38.3,30.09,West,279,0.0,4.0,61,0.00,,,0.00,VWS V12.08,2013-04-14 14:11:00,
2013-04-14 10:16:00,51.8,37.1,30.09,North,0,3.1,4.0,57,0.00,,,0.00,VWS V12.08,2013-04-14 14:16:00,
2013-04-14 10:21:00,52.2,37.8,30.09,NW,309,0.0,0.0,58,0.00,,,0.00,VWS V12.08,2013-04-14 14:21:00,
2013-04-14 10:32:00,52.9,37.6,30.09,North,1,3.1,4.9,56,0.00,,,0.00,VWS V12.08,2013-04-14 14:32:00,
2013-04-14 10:41:00,53.1,35.4,30.06,SW,233,3.1,5.8,51,0.00,,,0.00,VWS V12.08,2013-04-14 14:41:00,
2013-04-14 10:47:00,53.1,34.9,30.06,NW,319,0.0,3.6,50,0.00,,,0.00,VWS V12.08,2013-04-14 14:47:00,
2013-04-14 10:56:00,53.2,33.0,30.06,NNW,330,0.0,6.3,46,0.00,,,0.00,VWS V12.08,2013-04-14 14:56:00,
2013-04-14 11:04:00,53.4,33.7,30.06,NNW,341,2.7,6.3,47,0.00,,,0.00,VWS V12.08,2013-04-14 15:04:00,
2013-04-14 11:11:00,53.4,32.6,30.09,NW,314,4.9,6.3,45,0.00,,,0.00,VWS V12.08,2013-04-14 15:11:00,
2013-04-14 11:17:00,53.4,32.1,30.09,NNW,333,2.7,6.3,44,0.00,,,0.00,VWS V12.08,2013-04-14 15:17:00,
2013-04-14 11:26:00,53.1,28.8,30.09,North,0,4.0,7.6,39,0.00,,,0.00,VWS V12.08,2013-04-14 15:26:00,
2013-04-14 11:32:00,52.9,29.2,30.09,NW,312,3.6,7.6,40,0.00,,,0.00,VWS V12.08,2013-04-14 15:32:00,
2013-04-14 11:41:00,53.2,28.9,30.06,North,2,5.4,7.6,39,0.00,,,0.00,VWS V12.08,2013-04-14 15:41:00,
2013-04-14 11:47:00,53.2,28.3,30.06,WSW,241,2.7,6.3,38,0.00,,,0.00,VWS V12.08,2013-04-14 15:47:00,
2013-04-14 11:56:00,53.6,28.6,30.06,NNW,338,2.7,6.3,38,0.00,,,0.00,VWS V12.08,2013-04-14 15:56:00,
2013-04-14 12:04:00,53.8,29.4,30.06,West,279,0.0,6.3,39,0.00,,,0.00,VWS V12.08,2013-04-14 16:04:00,
2013-04-14 12:11:00,54.7,29.6,30.06,NW,318,3.6,4.9,38,0.00,,,0.00,VWS V12.08,2013-04-14 16:11:00,
2013-04-14 12:17:00,54.5,28.8,30.06,West,260,0.0,5.8,37,0.00,,,0.00,VWS V12.08,2013-04-14 16:17:00,
2013-04-14 12:22:00,54.3,28.6,30.06,NW,314,4.0,5.8,37,0.00,,,0.00,VWS V12.08,2013-04-14 16:22:00,
2013-04-14 12:32:00,54.0,29.0,30.06,North,1,0.0,5.8,38,0.00,,,0.00,VWS V12.08,2013-04-14 16:32:00,
2013-04-14 12:41:00,53.2,28.3,30.06,North,353,0.0,5.8,38,0.00,,,0.00,VWS V12.08,2013-04-14 16:41:00,
2013-04-14 12:50:00,52.3,27.5,30.09,North,353,0.0,3.6,38,0.00,,,0.00,VWS V12.08,2013-04-14 16:50:00,
2013-04-14 13:04:00,51.3,27.2,30.09,SSW,204,0.0,3.6,39,0.00,,,0.00,VWS V12.08,2013-04-14 17:04:00,
2013-04-14 13:10:00,50.5,26.5,30.09,SSW,204,0.0,0.0,39,0.00,,,0.00,VWS V12.08,2013-04-14 17:10:00,
2013-04-14 13:16:00,50.4,26.4,30.09,North,0,2.2,4.0,39,0.00,,,0.00,VWS V12.08,2013-04-14 17:16:00,
2013-04-14 13:25:00,49.8,26.5,30.09,North,5,0.0,3.6,40,0.00,,,0.00,VWS V12.08,2013-04-14 17:25:00,
2013-04-14 13:31:00,49.6,26.3,30.09,North,0,4.9,5.4,40,0.00,,,0.00,VWS V12.08,2013-04-14 17:31:00,
2013-04-14 13:40:00,49.1,25.8,30.09,NNW,340,3.1,5.4,40,0.00,,,0.00,VWS V12.08,2013-04-14 17:40:00,
2013-04-14 13:46:00,48.9,25.7,30.09,North,353,0.0,4.0,40,0.00,,,0.00,VWS V12.08,2013-04-14 17:46:00,
2013-04-14 13:55:00,48.6,26.0,30.09,North,2,0.0,4.0,41,0.00,,,0.00,VWS V12.08,2013-04-14 17:55:00,
2013-04-14 14:04:00,48.6,26.0,30.09,North,353,0.0,4.0,41,0.00,,,0.00,VWS V12.08,2013-04-14 18:04:00,
2013-04-14 14:10:00,48.6,26.0,30.09,NNW,335,3.6,3.6,41,0.00,,,0.00,VWS V12.08,2013-04-14 18:10:00,
2013-04-14 14:16:00,48.6,26.0,30.09,NNW,348,0.0,3.6,41,0.00,,,0.00,VWS V12.08,2013-04-14 18:16:00,
2013-04-14 14:25:00,48.6,26.5,30.09,North,353,0.0,0.0,42,0.00,,,0.00,VWS V12.08,2013-04-14 18:25:00,
2013-04-14 14:31:00,48.7,26.7,30.09,NNE,26,0.0,0.0,42,0.00,,,0.00,VWS V12.08,2013-04-14 18:31:00,
2013-04-14 14:41:00,49.1,27.6,30.09,NW,309,0.0,4.5,43,0.00,,,0.00,VWS V12.08,2013-04-14 18:41:00,
2013-04-14 14:46:00,49.1,27.6,30.09,WSW,247,2.2,3.1,43,0.00,,,0.00,VWS V12.08,2013-04-14 18:46:00,
2013-04-14 14:55:00,48.9,26.9,30.09,NE,51,3.1,3.1,42,0.00,,,0.00,VWS V12.08,2013-04-14 18:55:00,
2013-04-14 15:04:00,48.9,27.4,30.09,North,353,0.0,3.6,43,0.00,,,0.00,VWS V12.08,2013-04-14 19:04:00,
2013-04-14 15:11:00,50.0,29.0,30.09,NE,52,3.1,4.0,44,0.00,,,0.00,VWS V12.08,2013-04-14 19:11:00,
2013-04-14 15:16:00,50.4,28.7,30.09,NNW,343,2.2,4.5,43,0.00,,,0.00,VWS V12.08,2013-04-14 19:16:00,
2013-04-14 15:26:00,50.4,28.2,30.09,NNE,29,3.1,3.6,42,0.00,,,0.00,VWS V12.08,2013-04-14 19:26:00,
2013-04-14 15:31:00,50.4,28.2,30.09,NE,43,0.0,4.0,42,0.00,,,0.00,VWS V12.08,2013-04-14 19:31:00,
2013-04-14 15:41:00,50.4,27.6,30.09,NW,324,0.0,0.0,41,0.00,,,0.00,VWS V12.08,2013-04-14 19:41:00,
2013-04-14 15:46:00,50.4,27.6,30.09,NNW,345,0.0,2.7,41,0.00,,,0.00,VWS V12.08,2013-04-14 19:46:00,
2013-04-14 15:56:00,50.4,27.6,30.09,NNW,338,0.0,5.4,41,0.00,,,0.00,VWS V12.08,2013-04-14 19:56:00,
2013-04-14 16:04:00,50.4,27.6,30.09,NW,308,3.6,5.4,41,0.00,,,0.00,VWS V12.08,2013-04-14 20:04:00,
2013-04-14 16:11:00,50.5,27.1,30.09,NE,54,0.0,4.9,40,0.00,,,0.00,VWS V12.08,2013-04-14 20:11:00,
2013-04-14 16:16:00,50.5,27.1,30.09,North,2,3.1,4.9,40,0.00,,,0.00,VWS V12.08,2013-04-14 20:16:00,
2013-04-14 16:21:00,50.5,26.5,30.09,NW,316,3.6,3.6,39,0.00,,,0.00,VWS V12.08,2013-04-14 20:21:00,
2013-04-14 16:32:00,50.4,25.7,30.09,North,353,2.7,4.9,38,0.00,,,0.00,VWS V12.08,2013-04-14 20:32:00,
2013-04-14 16:41:00,50.2,25.6,30.09,North,350,4.0,4.9,38,0.00,,,0.00,VWS V12.08,2013-04-14 20:41:00,
2013-04-14 16:46:00,50.0,25.4,30.09,NNW,331,2.7,6.3,38,0.00,,,0.00,VWS V12.08,2013-04-14 20:46:00,
2013-04-14 16:56:00,50.0,25.4,30.09,NNW,330,3.1,6.3,38,0.00,,,0.00,VWS V12.08,2013-04-14 20:56:00,
2013-04-14 17:04:00,50.0,24.8,30.09,North,0,2.7,6.3,37,0.00,,,0.00,VWS V12.08,2013-04-14 21:04:00,
2013-04-14 17:11:00,50.2,24.9,30.12,NNW,337,2.2,4.0,37,0.00,,,0.00,VWS V12.08,2013-04-14 21:11:00,
2013-04-14 17:16:00,50.2,24.9,30.12,North,353,0.0,4.0,37,0.00,,,0.00,VWS V12.08,2013-04-14 21:16:00,
2013-04-14 17:22:00,50.2,24.9,30.12,West,278,2.7,3.6,37,0.00,,,0.00,VWS V12.08,2013-04-14 21:22:00,
2013-04-14 17:32:00,50.2,24.9,30.12,WNW,291,3.6,3.6,37,0.00,,,0.00,VWS V12.08,2013-04-14 21:32:00,
2013-04-14 17:41:00,50.2,24.9,30.12,NNE,15,0.0,4.0,37,0.00,,,0.00,VWS V12.08,2013-04-14 21:41:00,
2013-04-14 17:47:00,50.2,24.9,30.12,NNW,344,3.6,4.0,37,0.00,,,0.00,VWS V12.08,2013-04-14 21:47:00,
2013-04-14 17:56:00,50.5,25.2,30.12,SW,219,2.7,4.9,37,0.00,,,0.00,VWS V12.08,2013-04-14 21:56:00,
2013-04-14 18:04:00,50.5,25.2,30.12,NNE,26,6.3,7.6,37,0.00,,,0.00,VWS V12.08,2013-04-14 22:04:00,
2013-04-14 18:11:00,50.4,25.1,30.15,NNW,342,4.0,6.3,37,0.00,,,0.00,VWS V12.08,2013-04-14 22:11:00,
2013-04-14 18:17:00,50.2,24.3,30.15,North,9,2.2,6.3,36,0.00,,,0.00,VWS V12.08,2013-04-14 22:17:00,
2013-04-14 18:26:00,49.6,24.5,30.15,NE,45,0.0,4.9,37,0.00,,,0.00,VWS V12.08,2013-04-14 22:26:00,
2013-04-14 18:32:00,49.5,24.3,30.15,NNW,344,3.1,5.8,37,0.00,,,0.00,VWS V12.08,2013-04-14 22:32:00,
2013-04-14 18:41:00,49.1,24.0,30.15,North,349,4.0,5.8,37,0.00,,,0.00,VWS V12.08,2013-04-14 22:41:00,
2013-04-14 18:47:00,48.9,23.8,30.15,NW,324,0.0,5.4,37,0.00,,,0.00,VWS V12.08,2013-04-14 22:47:00,
2013-04-14 18:57:00,48.7,23.6,30.15,North,0,0.0,5.4,37,0.00,,,0.00,VWS V12.08,2013-04-14 22:57:00,
2013-04-14 19:04:00,48.6,22.8,30.15,NNW,343,0.0,5.4,36,0.00,,,0.00,VWS V12.08,2013-04-14 23:04:00,
2013-04-14 19:11:00,48.0,23.0,30.18,NNW,341,0.0,6.3,37,0.00,,,0.00,VWS V12.08,2013-04-14 23:11:00,
2013-04-14 19:17:00,47.8,22.2,30.18,NNW,337,2.7,6.3,36,0.00,,,0.00,VWS V12.08,2013-04-14 23:17:00,
2013-04-14 19:26:00,47.5,21.9,30.18,WSW,238,3.1,5.4,36,0.00,,,0.00,VWS V12.08,2013-04-14 23:26:00,
2013-04-14 19:32:00,47.3,21.7,30.18,North,0,0.0,5.4,36,0.00,,,0.00,VWS V12.08,2013-04-14 23:32:00,
2013-04-14 19:41:00,46.9,21.4,30.18,NNW,334,2.7,5.8,36,0.00,,,0.00,VWS V12.08,2013-04-14 23:41:00,
2013-04-14 19:50:00,46.6,21.1,30.21,North,349,2.7,3.6,36,0.00,,,0.00,VWS V12.08,2013-04-14 23:50:00,
2013-04-14 20:04:00,46.4,20.9,30.21,NNW,340,2.7,5.4,36,0.00,,,0.00,VWS V12.08,2013-04-15 00:04:00,
2013-04-14 20:10:00,46.0,21.2,30.21,NNE,21,2.7,6.3,37,0.00,,,0.00,VWS V12.08,2013-04-15 00:10:00,
2013-04-14 20:16:00,46.0,21.2,30.21,NNW,346,3.1,6.3,37,0.00,,,0.00,VWS V12.08,2013-04-15 00:16:00,
2013-04-14 20:25:00,45.9,21.1,30.21,North,353,4.0,5.8,37,0.00,,,0.00,VWS V12.08,2013-04-15 00:25:00,
2013-04-14 20:31:00,45.9,21.1,30.21,NW,321,3.6,7.2,37,0.00,,,0.00,VWS V12.08,2013-04-15 00:31:00,
2013-04-14 20:40:00,45.9,21.1,30.24,North,350,3.6,7.2,37,0.00,,,0.00,VWS V12.08,2013-04-15 00:40:00,
2013-04-14 20:46:00,45.9,21.1,30.24,NNW,337,4.0,5.8,37,0.00,,,0.00,VWS V12.08,2013-04-15 00:46:00,
2013-04-14 20:55:00,45.9,21.1,30.24,NNW,346,4.0,5.8,37,0.00,,,0.00,VWS V12.08,2013-04-15 00:55:00,
2013-04-14 21:04:00,45.9,21.1,30.24,NNW,335,0.0,5.8,37,0.00,,,0.00,VWS V12.08,2013-04-15 01:04:00,
2013-04-14 21:10:00,45.7,20.9,30.24,North,0,0.0,5.8,37,0.00,,,0.00,VWS V12.08,2013-04-15 01:10:00,
2013-04-14 21:16:00,45.7,20.9,30.24,North,349,2.2,5.8,37,0.00,,,0.00,VWS V12.08,2013-04-15 01:16:00,
2013-04-14 21:21:00,45.7,20.9,30.27,North,353,0.0,2.7,37,0.00,,,0.00,VWS V12.08,2013-04-15 01:21:00,
2013-04-14 21:35:00,45.5,20.8,30.27,NW,312,2.7,5.8,37,0.00,,,0.00,VWS V12.08,2013-04-15 01:35:00,
2013-04-14 21:41:00,45.5,20.8,30.27,NW,304,4.0,5.8,37,0.00,,,0.00,VWS V12.08,2013-04-15 01:41:00,
2013-04-14 21:46:00,45.3,20.6,30.27,NNW,346,4.0,4.9,37,0.00,,,0.00,VWS V12.08,2013-04-15 01:46:00,
2013-04-14 21:55:00,45.3,20.6,30.27,NNW,345,4.0,7.6,37,0.00,,,0.00,VWS V12.08,2013-04-15 01:55:00,
2013-04-14 22:04:00,45.1,20.4,30.27,SW,218,3.6,7.6,37,0.00,,,0.00,VWS V12.08,2013-04-15 02:04:00,
2013-04-14 22:11:00,45.1,20.4,30.27,North,1,3.6,4.9,37,0.00,,,0.00,VWS V12.08,2013-04-15 02:11:00,
2013-04-14 22:16:00,45.0,20.3,30.27,NNW,340,0.0,4.9,37,0.00,,,0.00,VWS V12.08,2013-04-15 02:16:00,
2013-04-14 22:26:00,44.8,20.1,30.27,NNW,342,3.1,3.6,37,0.00,,,0.00,VWS V12.08,2013-04-15 02:26:00,
2013-04-14 22:31:00,44.6,20.0,30.27,West,276,0.0,4.0,37,0.00,,,0.00,VWS V12.08,2013-04-15 02:31:00,
2013-04-14 22:41:00,44.6,20.0,30.27,NW,317,3.1,4.0,37,0.00,,,0.00,VWS V12.08,2013-04-15 02:41:00,
2013-04-14 22:46:00,44.4,20.4,30.27,NNW,345,2.7,4.9,38,0.00,,,0.00,VWS V12.08,2013-04-15 02:46:00,
2013-04-14 22:56:00,44.4,20.4,30.27,NNW,334,0.0,4.9,38,0.00,,,0.00,VWS V12.08,2013-04-15 02:56:00,
2013-04-14 23:04:00,44.2,20.3,30.27,NNW,337,2.2,4.9,38,0.00,,,0.00,VWS V12.08,2013-04-15 03:04:00,
2013-04-14 23:11:00,44.2,20.3,30.27,NNW,338,3.1,5.4,38,0.00,,,0.00,VWS V12.08,2013-04-15 03:11:00,
2013-04-14 23:17:00,44.1,20.1,30.27,NW,320,3.6,5.4,38,0.00,,,0.00,VWS V12.08,2013-04-15 03:17:00,
2013-04-14 23:22:00,44.1,20.1,30.30,WNW,290,2.7,4.0,38,0.00,,,0.00,VWS V12.08,2013-04-15 03:22:00,
2013-04-14 23:31:00,44.1,20.1,30.30,NNW,332,3.6,5.8,38,0.00,,,0.00,VWS V12.08,2013-04-15 03:31:00,
2013-04-14 23:41:00,43.9,19.9,30.30,North,1,2.7,5.8,38,0.00,,,0.00,VWS V12.08,2013-04-15 03:41:00,
2013-04-14 23:46:00,43.9,19.9,30.30,North,0,3.1,4.0,38,0.00,,,0.00,VWS V12.08,2013-04-15 03:46:00,
2013-04-14 23:56:00,43.7,19.8,30.30,NW,316,4.0,5.4,38,0.00,,,0.00,VWS V12.08,2013-04-15 03:56:00,